Flag for U.S.A. Weather past 2 weeks in Winamac, Indiana, U.S.A.

Now
66 °F

Sunny.


Feels Like: 66 °F
Forecast: 47 / 72 °F
Wind: 10 mph from South

Location: Porter County Municipal Airport

Current Time: Sep 19, 2014 at 12:25:08 PM

Latest Report: Sep 19, 2014 at 11:53 AM


Visibility: 10 mi

Pressure: 30.18 "Hg

Humidity: 61%

Dew point: 52 °F

Location of WinamacLocation

Historic Weather in Winamac — Graph

°F

Winamac temperature yesterday

Maximum temperature yesterday: 72 °F (at 2:53 PM)
Minimum temperature yesterday: 44 °F (at 6:53 AM)
Average temperature yesterday: 57 °F

Past Weeks' High & Low Weather Summary

 TemperatureHumidityPressure
High89 °F (Sep 5, 4:53 PM)100% (Sep 5, 7:53 PM)30.36 "Hg (Sep 5, 7:53 PM)
Low40 °F (Sep 14, 2:53 AM)40% (Sep 7, 4:53 PM)29.59 "Hg (Sep 10, 5:53 PM)
Average60 °F79%30.10 "Hg
* Reported Sep 4 10:53 AM — Sep 19 10:53 AM, Winamac, Weather by CustomWeather, © 2014

Note: Actual official high and low records may vary slightly from our data, if they occured in-between our weather recording intervals... More about our weather records

Advertising

Winamac weather history for previous 24 hours

 ConditionsComfort  
Time TempWeatherWind HumidityBarometerVisibility
10:53 AM
Sep 19
62 °FSunny.7 mph70%30.20 "Hg10 mi
9:53 AM58 °FSunny.8 mph81%30.19 "Hg10 mi
8:53 AM52 °FFog.5 mph93%30.20 "Hg3 mi
7:53 AM47 °FFog.6 mph97%30.20 "Hg2 mi
6:53 AM48 °FFog.6 mph93%30.19 "Hg4 mi
5:53 AM47 °FFog.No wind97%30.17 "Hg5 mi
4:53 AM48 °FClear.6 mph93%30.16 "Hg7 mi
3:53 AM49 °FClear.6 mph93%30.17 "Hg9 mi
2:53 AM49 °FClear.7 mph93%30.17 "Hg10 mi
1:53 AM52 °FClear.6 mph89%30.18 "Hg10 mi
12:53 AM53 °FClear.5 mph89%30.16 "Hg10 mi
11:53 PM
Sep 18
52 °FClear.3 mph97%30.16 "Hg7 mi
10:53 PM53 °FClear.3 mph93%30.15 "Hg10 mi
9:53 PM57 °FClear.No wind87%30.14 "Hg10 mi
8:53 PM57 °FClear.3 mph87%30.13 "Hg10 mi
7:53 PM60 °FClear.3 mph78%30.12 "Hg10 mi
6:53 PM65 °FSunny.6 mph66%30.11 "Hg10 mi
5:53 PM68 °FSunny.6 mph57%30.10 "Hg10 mi
4:53 PM70 °FSunny.7 mph53%30.10 "Hg10 mi
3:53 PM72 °FSunny.10 mph44%30.11 "Hg10 mi
2:53 PM72 °FSunny.9 mph44%30.12 "Hg10 mi
1:53 PM70 °FSunny.8 mph44%30.14 "Hg10 mi
12:53 PM68 °FSunny.9 mph42%30.15 "Hg10 mi
Weather by CustomWeather, © 2014

See weather overviewHow to use our weather pages